Regional Weather Roundup
Issued by NWS

Home | Current Version | Previous Version | Graphics & Text | Print | Product List | Glossary On
Versions: 1 2 3 4 5 6 7 8 9 10 11 12 13 14 15 16 17 18 19 20 21 22 23 24 25 26 27 28 29 30 31 32 33 34 35 36 37 38 39 40 41 42 43 44 45 46 47 48 49 50
000
ASUS43 KDTX 301401
RWRMI
MICHIGAN HOURLY REGIONAL WEATHER ROUNDUP
NATIONAL WEATHER SERVICE DETROIT/PONTIAC MI
1000 AM EDT SUN APR 30 2017

NOTE: "FAIR" INDICATES FEW OR NO CLOUDS BELOW 12,000 FEET WITH NO
SIGNIFICANT WEATHER AND/OR OBSTRUCTION TO VISIBILITY.

MIZ047>049-052>055-059>063-066>070-074>076-081>083-301500-
SOUTHEAST LOWER MICHIGAN

CITY           SKY/WX    TMP DP  RH WIND       PRES   REMARKS
ADRIAN         CLOUDY    47  44  90 E12       29.96F
ALMA           LGT RAIN  41  40  96 NE16G22   30.05F
ANN ARBOR      CLOUDY    47  43  86 NE8       29.98F
BAD AXE        LGT RAIN  38  37  94 MISG      30.10F
CARO           CLOUDY    40  39  95 E13G18    30.04F WCI  33
DETROIT CITY   CLOUDY    47  42  83 NE10      30.02F
DETROIT        CLOUDY    48  42  80 E8        30.01F
FLINT          CLOUDY    44  40  85 E17       30.01F
GROSSE ILE     CLOUDY    48  43  83 E9G16     30.00F
HILLSDALE      CLOUDY    45  43  93 E16G22    29.92F FOG
HOWELL         CLOUDY    44  40  85 E12       29.99F

CITY           SKY/WX    TMP DP  RH WIND       PRES   REMARKS
JACKSON        LGT RAIN  45  42  89 E16       29.95F
LAMBERTVILLE   CLOUDY    49  46  89 E12G17    29.95F
LANSING        CLOUDY    43  40  89 E10       30.00F
LAPEER         CLOUDY    42  40  92 E7        30.04F
MASON          CLOUDY    44  42  92 E10G16    29.97F
MONROE         CLOUDY    49  44  85 E9G18     29.99S
MT. CLEMENS    CLOUDY    47  40  79 NE10      30.02F
PONTIAC        CLOUDY    44  39  82 E9        30.00F
PORT HOPE        N/A     40  38  93 NE30      30.08F WCI  28
PORT HURON     CLOUDY    45  36  70 NE12G17   30.05F
TRI CITIES     LGT RAIN  41  40  96 NE17      30.07F
MIDLAND        CLOUDY    42  39  89 NE13G20   30.07S
TROY           CLOUDY    46  38  73 E10       30.04F
SAGINAW HB     CLOUDY    41  36  81 NE14      30.05F
$$
MIZ043>046-050>051-056>058-064>065-071>073-077>080-301500-
SOUTHWEST LOWER MICHIGAN

CITY           SKY/WX    TMP DP  RH WIND       PRES   REMARKS
BATTLE CREEK   LGT RAIN  45  44  97 E9        29.93F
BENTON HARBOR  LGT RAIN  46  43  89 E14       29.86F FOG
BIG RAPIDS     CLOUDY    38  35  89 E18G25    30.01F WCI  29
COLDWATER      LGT RAIN  46  46  97 E8        29.92F
FREMONT        LGT RAIN  41  38  92 E18G26    29.97F
HOLLAND        LGT RAIN  43  40  89 E17G25    29.92F
GRAND RAPIDS   LGT RAIN  42  42 100 E18       29.95F
IONIA          RAIN      41  40  95 NE16G22   29.99F
KALAMAZOO      LGT RAIN  46  42  86 E8        29.92F FOG
LUDINGTON      CLOUDY    40  38  91 E18       29.99F WCI  31
MARSHALL       LGT RAIN  45  45  98 E10       29.93F
MOUNT PLEASANT CLOUDY    39  37  93 NE12G20   30.05F WCI  31
MUSKEGON       LGT RAIN  44  41  89 E17G28    29.94F
SOUTH HAVEN    LGT RAIN  44  43  97 E14       29.88F
$$
MIZ016>042-301500-
NORTHERN LOWER MICHIGAN

CITY           SKY/WX    TMP DP  RH WIND       PRES   REMARKS
ALPENA         LGT RAIN  35  34  96 E12G23    30.19F FOG     WCI  27
BEAVER ISLAND  CLOUDY    41  30  65 E14G25    30.15F
BELLAIRE       CLOUDY    38  34  85 NE9G18    30.10F FOG     WCI  31
CADILLAC       CLOUDY    37  36  95 E20       30.01F WCI  26
CHARLEVOIX     CLOUDY    37  33  82 E17       30.15F HAZE    WCI  28
FRANKFORT      CLOUDY    39  34  82 E10G18    30.03F WCI  32
GAYLORD        LGT RAIN  35  32  88 E13G20    30.11F WCI  26
GRAYLING       CLOUDY    35  33  93 E16G24    30.10F FOG     WCI  25
HARBOR SPRINGS CLOUDY    37  32  84 E15G28    30.16F WCI  27
HOUGHTON LAKE  LGT RAIN  37  35  92 E17       30.08F WCI  27
MANISTEE       CLOUDY    41  37  86 E16       30.00F
OSCODA         LGT SNOW  38  37  93 E23G31    30.14F WCI  28
PELLSTON       CLOUDY    38  29  70 E18G28    30.18F WCI  28
ROGERS CITY    MIX PCPN  36  32  85 E17       30.22F WCI  25
TRAVERSE CITY  LGT RAIN  39  36  89 E12       30.06F WCI  32
$$
MIZ007>008-015-301500-
EASTERN UPPER MICHIGAN

CITY           SKY/WX    TMP DP  RH WIND       PRES   REMARKS
KINROSS        CLOUDY    42  23  46 E15G24    30.21F
MACKINAC ISLAN CLOUDY    38  30  71 E12G22    30.20F WCI  31
NEWBERRY       CLOUDY    42  24  48 NE14      30.17F
S. S. MARIE    MOSUNNY   46  23  40 E10G17    30.21F
MUNISING         N/A     46  24  42 E13G22    30.15F
$$
MIZ004>006-011>014-085-301500-
CENTRAL UPPER MICHIGAN

CITY           SKY/WX    TMP DP  RH WIND       PRES   REMARKS
MANISTIQUE     CLOUDY    42  32  69 E12G20    30.15F
ESCANABA       CLOUDY    42  29  59 E18G24    30.12F
MENOMINEE      CLOUDY    40  32  73 E20G28    30.09F WCI  30
SAWYER-GWINN   SUNNY     43  27  52 E9        30.14F
$$
MIZ001>003-009>011-084-301500-
WESTERN UPPER MICHIGAN

CITY           SKY/WX    TMP DP  RH WIND       PRES   REMARKS
IRON MOUNTAIN  CLOUDY    42  28  57 SE16G24   30.08F
HOUGHTON       CLOUDY    41  31  67 E13       30.15F
COPPER HARBOR    N/A     44  30  57 SE6       30.19F
IRONWOOD       CLOUDY    41  24  51 E12       30.09F
$$

ABBREVIATIONS USED IN REMARKS
   TC - TEMPERATURE IN CELSIUS
  WCI - WIND CHILL INDEX
   HX - HEAT INDEX
  VSB - VISIBILITY




USA.gov is the U.S. government's official web portal to all federal, state and local government web resources and services.